Location: �perlecques
(50.8057°N, 2.1521°E)
Time: 19:28:40
(UTC+00:00)

Tiros 1 - Pass Details

Date: 06 August 2021
Orbit: 630 x 663 km, 48.4° (Epoch: 28 September)

Event Time Altitude Azimuth Distance (km) Brightness Sun altitude
Rises 16:47:37 0° 236° (SW) 2,986 11.5 23.7°
Reaches altitude 10° 16:50:03 10° 230° (SW) 2,074 10.7 23.3°
Maximum altitude 16:54:35 44° 159° (SSE) 914 8.0 22.6°
Drops below altitude 10° 16:59:06 10° 88° (E) 2,065 9.2 21.9°
Sets 17:01:31 0° 82° (E) 2,972 10.0 21.5°
